Погода в Рауркеле

Индия     22°14′23″N   84°48′28″E
темп.,
°C
ветер,
м/с
пор.,
м/с
влажн.,
%
обл.,
%
осадки,
мм/ч
давл.,
гПа
погр.,
м
17 мая, пн
пн1723:30+30ююв510612 0.1 1005366
02:30+28юв227119 0.0 100535
05:30+27ююв22745 0.0 100749
08:30+35зюз443941 0.0 10081190
11:30+41зюз332457 0.0 10052982
14:30+41зюз332175 0.1 10023281
17:30+37ююв462711 0.2 1002336
20:30+34ююз34304 0.0 100350
18 мая, вт
вт1823:30+31ю410564 0.0 1004313
02:30+28ююв127057 0.0 100427
05:30+28ю25675 0.0 1004157
08:30+36зюз67382 0.0 10061503
11:30+41зюз56255 0.0 10043074
14:30+41зюз662489 0.0 10013041
17:30+40зсз55238 0.0 10001843
20:30+34всв233747 0.0 100381
19 мая, ср
ср1923:30+31всв234584 0.1 100451
02:30+29з225432 0.8 100315
05:30+29ююз115662 0.8 100412
08:30+35з233642 0.1 1005903
11:30+41з442443 0.1 10032768
14:30+44зюз451735 0.0 9994404
17:30+42юз76185 0.0 9981948
20:30+37св342495 0.0 1000104
20 мая, чт
чт2023:30+33ююв123898 0.0 100236
02:30+32ююв495634 0.0 1001337
05:30+30ююв376451 0.0 1003264
08:30+38зюз783176 0.0 10041857
11:30+42зюз6622100 0.0 10023367
14:30+44зюз761949 0.0 9994376
17:30+42зюз77184 0.0 9982400
20:30+36юз252642 0.0 100093
21 мая, пт
пт2123:30+33ююз2340100 0.0 100176
02:30+31ю22465 0.1 100125
05:30+30зюз37450 0.1 1002179
08:30+38зсз44260 0.0 10031317
11:30+42з68150 0.0 10012941
14:30+43зсз77110 0.0 9993525
17:30+41зсз77140 0.0 9982947
20:30+34сз410210 0.0 1001250